SL-14 R/B, 22652

Orbit data source: Space-Track

SL-14 R/B, 22652 is space debris in LEO originally from a launch on Tue, 11 May 1993 UTC launched from the Plesetsk Missile And Space Complex (PKMTR). Debris objects in space refer to the collection of defunct objects orbiting the Earth. Examples of debris include non-operational satellites, rocket bodies, and fragments generated from explosions, collisions, or faulty payload assembly.

Loading next visibility...
Identifier
22652, 1993-030G
Orbit
LEO
Country
Flag of CISCIS
Related business
Manufacturer
Yuzhnoe
Mission
Spacecraft
Bus & Motor
S5M, Unknown motor
Mass
1,600 kg wet, 1,600 kg dry
Launch date (UTC)
1993-05-11 (33 years ago)
Launch vehicle
Unknown
Launch site
Plesetsk Missile And Space Complex (PKMTR)
Object type
Payload
Rocket body
Debris
Shape & HBR
Cyl, 1.4 m
Radar Cross Section
7.351 m², Medium (>0.1 m² and < 1m²)

Expand to show TLE details & history
Last TLE update: 7 hours ago

TLE from 7 hours ago
0 SL-14 R/B
1 22652U 93030G   26124.75265634  .00000030  00000-0  10739-3 0  9991
2 22652  82.5899 351.9087 0008408  42.3314  27.2386 12.63199455520550
Epoch: 2026-05-04T18:03Z
TLE epoch observation values (Epoch: 2026-05-04T18:03:49.507Z)
Latitude
68.43711°
Longitude
-122.56887°
Altitude
1,415.764 km
Speed
7.162 km/s
True Right ascension
00h 44m 05s
True Declination
68° 19' 45"
Sunlit
Object was in daylight at epoch
Visualization orbit readout
Latitude
Unknown
Longitude
Unknown
Altitude
Unknown
Speed
Unknown
Apparent Right ascension
Unknown
Apparent Declination
Unknown
Sunlit
N/A
Visualization observer readout
Local Sidereal Time
08:58:09
Azimuth
Unknown
Elevation
Unknown
Doppler factor
Unknown
Orbital elements
Apogee altitude
1,413.631 km
Perigee altitude
1,400.54 km
Semi-major axis
7,785.222 km
Eccentricity
0.00084
Inclination
82.5899°
RAAN
351.9087°
Arg. of periapsis
42.3314°
True anomaly
27.28274°
Mean anomaly
27.2386°
Eccentric anomaly
27.26067°
Mean motion
3.15963 °/min
Orbital period
113.94 mins
BSTAR
0.00010739
Loading maneuver chart data...
Computing Atmospheric mass density...
Loading historical data...
Loading historical data...
Loading historical data...
Loading historical data...
Loading historical data...
Loading historical data...
Loading historical data...

Documentation

Showing up to 5 results
|